Temperature
8 7 8 8 8 8 9 9 9 9 9 10 10 9 10 10 10 10 10 10 10 10 10 10 10 10 10 9 9 9 9 10 10 9 9 9 9 9 9 9 9 9 9
7 7 7 7 8 8 8 8 8 9 9 9 9 9 9 9 9 9 9 9 9 9 9 9 9 9 9 9 9 9 9 9 9 9 8 8 8 8 8 9 9 9 9
7 6 6 7 7 7 8 8 8 8 8 9 9 9 8 8 8 8 9 9 9 9 9 9 8 8 8 8 9 8 8 8 8 8 8 8 8 8 8 8 8 8 8
6 6 6 6 6 7 7 7 7 8 8 8 8 8 8 8 8 8 8 8 8 8 8 8 8 8 8 8 8 8 8 8 8 8 7 7 7 7 7 7 7 8 7
6 5 5 5 6 6 6 6 7 7 7 7 7 7 7 7 7 7 7 7 8 8 8 7 8 7 7 7 7 7 7 7 7 7 7 7 7 6 6 6 6 7 7
5 5 5 5 5 5 6 6 6 6 7 7 7 7 7 7 6 7 7 7 7 7 7 7 7 7 7 7 7 7 7 6 6 6 6 6 6 6 6 6 6 6 6
5 4 4 4 5 5 5 5 5 5 6 6 6 6 6 6 6 6 6 6 6 6 6 7 6 6 6 6 6 6 6 6 6 6 6 5 5 5 5 5 5 5 5
5 4 4 4 4 5 5 5 5 5 5 5 5 5 5 6 5 6 6 6 6 6 6 6 6 6 6 6 5 5 5 5 5 5 5 5 5 5 5 5 4 4 5
4 4 4 4 4 4 4 4 4 5 4 4 4 5 5 5 5 5 5 5 5 5 5 5 5 5 5 5 5 4 5 5 4 4 5 4 4 4 4 4 4 4 4
4 3 3 3 4 4 4 4 4 4 4 4 4 4 4 4 4 4 4 4 4 4 4 4 4 4 4 4 4 4 4 4 4 4 4 4 4 4 4 4 4 4 3
3 3 3 3 3 3 3 3 3 4 3 3 3 4 4 3 3 3 3 3 3 4 4 4 3 3 3 3 3 3 3 3 3 3 3 3 3 3 3 3 3 3 3
3 2 2 2 3 3 3 3 3 3 3 3 3 3 3 3 3 3 3 3 3 3 3 3 3 3 3 3 3 3 3 3 3 3 3 3 3 3 3 3 3 3 3
2 2 2 2 2 2 2 2 2 2 2 3 3 3 2 3 3 3 2 3 3 2 2 2 2 2 2 2 2 2 2 2 2 2 2 2 2 2 2 2 2 2 2
2 2 2 2 2 2 2 2 2 2 2 2 2 2 2 2 2 2 2 2 2 2 2 2 2 2 2 2 2 2 2 2 2 2 2 2 2 2 2 2 2 2 1
1 1 1 1 2 2 2 2 2 2 1 1 1 2 2 2 2 2 2 2 2 1 1 1 1 1 1 1 1 1 1 1 1 1 1 1 1 1 1 1 1 1 1
1 1 1 1 1 1 1 1 1 1 1 1 1 1 1 1 1 1 1 1 1 1 1 1 1 1 1 1 1 1 1 1 1 1 1 1 1 1 1 1 1 1 1
1 1 1 1 1 1 1 1 1 1 1 1 1 1 1 1 0 0 1 0 0 0 0 0 0 -0 0 0 0 0 0 0 0 0 0 0 0 1 1 0 0 1 0
1 1 1 1 1 0 0 0 0 0 0 0 0 0 0 0 0 0 0 0 -0 -0 -0 -0 -1 -1 -0 -0 -0 -0 -0 -0 -0 -0 -0 -0 -0 0 0 0 0 0 0
1 1 1 1 0 0 -0 -0 -0 -0 -0 -0 -0 -0 -0 -0 -0 -0 -0 -0 -0 -1 -1 -1 -1 -1 -1 -1 -1 -1 -1 -1 -1 -1 -1 -1 -1 -1 -1 -1 -1 -0 -0
0 0 0 0 -0 -0 -0 -1 -0 -0 -1 -1 -1 -0 -1 -1 -1 -1 -1 -1 -1 -1 -1 -1 -1 -1 -1 -1 -1 -1 -2 -2 -2 -1 -1 -2 -1 -1 -1 -1 -1 -1 -1
-0 0 0 -0 -0 -1 -1 -1 -1 -1 -1 -1 -1 -1 -1 -1 -1 -1 -1 -1 -1 -2 -2 -2 -2 -2 -2 -2 -2 -2 -2 -2 -2 -2 -2 -2 -2 -2 -2 -2 -2 -1 -1
-0 -0 -0 -1 -1 -1 -1 -1 -1 -1 -1 -1 -1 -1 -1 -2 -1 -1 -1 -2 -2 -2 -2 -2 -2 -2 -2 -2 -2 -2 -2 -2 -3 -2 -2 -2 -2 -2 -2 -2 -2 -2 -2
-1 -1 -1 -1 -1 -1 -1 -1 -1 -1 -1 -1 -2 -2 -2 -2 -2 -2 -2 -2 -2 -3 -3 -3 -3 -3 -3 -3 -3 -3 -3 -3 -3 -3 -3 -3 -3 -3 -3 -3 -3 -2 -2
-1 -2 -2 -2 -2 -2 -2 -2 -2 -2 -2 -2 -2 -2 -2 -2 -2 -2 -2 -2 -3 -3 -3 -3 -3 -3 -3 -3 -3 -3 -3 -3 -3 -3 -3 -3 -3 -3 -3 -3 -3 -3 -3
-2 -2 -2 -2 -2 -2 -2 -2 -2 -2 -2 -2 -2 -2 -2 -3 -3 -3 -3 -3 -3 -3 -3 -3 -3 -3 -3 -3 -3 -3 -3 -3 -3 -4 -4 -4 -4 -4 -4 -4 -4 -3 -3
-2 -2 -2 -2 -2 -2 -2 -2 -2 -3 -3 -3 -3 -3 -3 -3 -3 -3 -3 -3 -3 -3 -3 -3 -4 -4 -4 -4 -4 -4 -4 -4 -4 -4 -4 -4 -4 -4 -4 -4 -4 -4 -4
Wind_Speed
3 1 1 1 1 2 3 4 4 4 4 3 3 3 2 2 2 1 2 2 1 1 1 1 2 2 2 2 3 3 3 2 2 2 2 3 4 4 3 3 3 3 3
2 1 1 1 1 1 2 3 4 4 4 3 3 2 2 2 2 1 1 1 1 1 1 0 1 2 2 2 2 2 2 2 2 2 2 3 4 4 4 3 3 4 3
3 2 1 1 1 2 2 1 3 4 4 4 3 3 3 2 1 1 1 1 1 1 1 1 2 2 2 2 3 3 4 3 3 2 2 3 3 2 3 4 4 4 3
3 2 2 2 2 2 1 1 2 2 2 3 4 5 4 3 2 2 2 2 2 2 1 2 2 2 3 3 3 3 3 3 3 3 3 3 2 2 2 3 4 4 4
2 2 2 2 2 2 1 1 1 2 2 2 3 4 3 3 2 2 3 3 3 2 2 2 3 3 3 3 3 3 3 3 3 3 3 4 3 4 4 4 3 3 4
2 2 1 1 1 0 1 1 1 2 2 2 2 3 3 3 3 3 3 3 3 3 3 3 3 3 3 4 4 4 4 4 4 4 3 3 3 4 4 5 4 4 4
2 2 1 1 0 0 1 1 2 1 1 1 1 2 2 3 3 3 4 4 3 3 4 4 4 4 4 4 4 4 4 5 5 5 4 4 5 4 4 5 5 5 4
2 2 1 1 1 1 1 1 2 1 1 1 1 1 2 2 2 3 3 4 3 4 4 4 4 5 5 5 4 4 5 4 5 6 5 5 5 4 5 5 4 5 5
2 2 1 1 1 2 2 2 2 2 1 2 2 2 2 2 2 3 3 3 3 3 4 5 5 5 5 4 4 4 5 5 5 5 6 5 4 4 5 5 5 5 6
2 2 2 1 1 1 1 2 2 2 2 2 2 2 3 3 3 3 3 4 4 3 4 4 4 5 5 5 5 5 5 5 5 4 5 5 5 4 4 5 5 6 7
3 2 2 2 2 2 2 2 2 3 3 3 3 3 3 3 3 3 4 4 4 4 4 4 4 5 5 5 5 5 5 6 6 6 6 6 6 5 5 5 5 6 6
3 3 3 2 2 2 2 3 3 3 4 4 3 4 4 4 4 4 4 4 4 4 4 5 5 5 5 5 6 6 6 7 7 7 7 7 5 6 5 5 6 6 7
3 2 2 3 3 3 3 3 4 4 4 4 4 4 4 5 4 5 5 5 4 4 4 5 5 5 5 5 6 6 7 7 7 7 7 7 7 7 6 7 7 6 6
3 3 3 3 3 4 4 4 4 4 4 4 5 5 5 5 5 5 5 5 5 4 5 5 5 5 5 6 6 6 7 7 7 7 7 7 8 8 8 7 7 7 7
4 4 4 4 4 4 4 4 5 4 4 5 5 6 5 5 5 5 5 5 5 5 5 5 5 5 5 5 6 6 6 7 7 7 8 8 9 10 8 7 7 7 7
5 5 5 5 5 5 5 5 5 5 5 5 6 5 5 5 5 5 5 5 5 5 5 5 6 6 5 6 7 6 6 6 7 7 8 7 9 10 11 11 11 10 9
6 6 6 6 6 6 6 6 6 5 5 6 6 5 5 5 6 5 5 5 5 5 6 6 6 6 7 7 8 8 7 7 7 7 7 7 7 8 8 9 10 11 13
7 7 6 6 6 6 5 5 5 5 5 6 6 5 6 6 6 5 6 6 5 5 6 6 7 7 7 8 9 8 7 7 7 7 8 8 8 8 8 8 9 9 9
7 7 6 6 5 5 4 4 5 5 5 6 6 6 6 6 5 6 6 5 5 6 6 6 7 7 8 8 8 7 6 6 7 7 8 8 9 9 9 9 8 8 8
6 6 5 5 5 4 4 4 5 5 6 6 6 6 6 6 6 6 6 5 6 6 6 7 7 8 8 8 8 7 5 6 6 6 7 9 10 10 10 9 8 9 8
6 5 5 4 4 4 4 5 6 6 6 6 6 6 6 6 7 6 6 6 5 6 6 6 7 7 8 8 9 8 6 6 6 6 6 6 10 11 10 10 8 9 7
5 4 4 4 4 3 4 5 6 6 6 6 6 6 6 6 5 6 6 6 6 6 6 6 6 6 7 8 8 9 9 8 7 7 6 7 10 11 11 9 9 7 6
5 4 4 5 4 4 4 6 6 5 5 6 6 6 6 5 5 5 6 5 5 5 5 5 6 5 5 6 8 9 10 10 8 7 8 9 10 10 9 9 8 6 4
5 4 4 5 5 4 5 6 6 5 5 6 6 5 5 5 4 4 4 5 5 5 5 5 6 5 5 5 5 5 6 8 7 7 7 8 8 7 7 6 5 4 4
4 4 4 5 6 5 6 5 5 4 5 5 5 5 4 4 4 4 4 5 5 6 6 5 6 5 6 6 7 6 5 5 6 5 5 4 4 4 4 4 4 4 3
5 5 5 5 6 5 6 5 4 4 4 4 4 4 3 4 4 4 4 5 6 7 8 8 7 6 8 8 9 9 9 8 7 5 4 5 5 5 4 4 4 4 3
Wind_Direction
271 282 278 271 247 221 203 196 180 177 172 168 171 165 159 141 112 76 93 117 118 145 179 185 188 195 203 214 220 213 210 200 186 200 218 223 227 229 233 234 239 242 243
267 287 289 263 230 217 210 196 186 181 176 174 174 174 157 150 142 129 110 94 104 134 167 171 214 214 217 207 207 214 219 203 198 206 206 226 222 222 227 226 234 244 242
257 259 266 262 247 227 207 178 182 179 174 166 158 153 147 143 154 176 183 197 188 181 183 216 223 222 219 224 219 215 214 215 210 222 220 224 230 237 212 225 231 238 243
254 257 264 263 253 246 220 178 147 141 153 166 169 172 178 182 203 212 213 210 206 201 214 233 226 226 228 229 228 229 227 219 215 223 241 255 259 237 237 222 229 245 248
242 249 271 273 262 248 211 182 145 132 131 152 169 184 190 196 203 213 219 218 216 222 223 237 231 227 228 230 229 225 230 228 228 224 229 235 246 245 246 250 247 252 246
252 261 285 278 267 234 171 178 159 134 129 145 173 183 191 192 204 223 223 222 223 226 231 235 239 238 236 230 230 230 229 232 232 229 230 233 232 233 239 251 262 264 258
246 258 277 304 304 274 185 182 174 155 152 156 166 198 213 213 220 241 235 231 230 233 235 237 241 245 247 243 232 230 229 231 233 232 235 241 246 252 249 255 266 273 277
251 258 270 276 262 254 226 210 205 195 190 200 225 241 245 241 244 255 257 241 243 247 248 242 243 246 248 246 239 235 234 237 236 237 239 243 247 248 245 251 261 271 269
290 279 269 268 263 250 232 226 227 227 229 232 240 244 252 258 262 270 274 267 263 264 259 250 244 243 244 244 237 236 233 235 238 241 240 242 246 248 250 251 247 253 268
303 288 281 282 282 268 252 244 236 237 244 247 253 257 253 259 264 269 275 270 270 268 261 257 248 243 243 242 238 239 238 235 237 240 241 245 250 249 250 251 252 250 256
303 288 286 284 286 280 263 250 244 247 250 250 252 255 256 257 258 261 272 272 267 263 255 254 250 244 239 238 236 237 240 239 241 241 240 244 249 250 250 250 251 252 254
309 301 300 295 288 284 275 263 254 250 252 250 250 251 254 252 254 257 266 267 262 261 257 252 248 248 246 241 239 239 241 241 244 243 243 245 245 248 251 250 251 250 250
318 313 306 295 288 281 276 268 260 259 259 252 249 247 248 249 253 258 265 263 257 259 258 253 249 246 244 244 246 247 244 243 243 244 245 246 245 245 245 247 250 253 255
308 307 299 290 289 286 281 275 270 266 261 254 250 248 250 251 255 258 262 259 255 255 258 257 254 250 249 247 247 247 245 248 248 246 246 245 244 246 248 246 248 253 256
294 295 292 290 290 288 285 280 274 268 261 255 251 252 256 254 255 256 258 255 253 254 254 254 256 254 252 251 254 250 248 252 254 253 250 249 249 251 251 250 249 250 251
285 285 286 285 284 281 280 278 276 270 261 256 255 257 255 251 251 258 256 253 254 255 252 253 255 255 255 262 264 262 256 255 253 255 256 253 248 250 252 251 250 248 247
288 282 278 276 278 278 275 274 277 273 260 256 256 252 250 249 252 252 249 251 254 253 251 253 254 256 259 263 264 263 260 259 258 259 260 259 256 254 252 254 253 252 251
289 287 282 277 277 276 273 271 272 266 260 260 259 255 253 254 254 250 249 252 252 251 253 255 256 260 262 264 264 263 256 257 257 256 260 263 263 257 257 259 258 257 254
290 290 286 279 273 272 274 276 272 268 264 264 263 262 257 254 253 252 253 254 255 254 255 256 257 258 260 261 263 264 257 258 260 259 260 262 264 265 263 258 259 262 266
292 291 288 284 271 269 271 266 266 265 263 265 265 263 258 253 252 253 253 253 252 254 256 256 256 258 259 259 258 258 255 260 264 264 264 262 266 272 267 259 257 260 266
294 292 286 283 283 281 270 264 264 264 270 270 269 265 259 256 255 256 252 251 250 254 255 258 260 259 259 258 254 253 252 258 264 264 264 266 270 271 267 266 260 262 272
295 294 289 289 291 286 279 276 274 278 280 274 270 265 261 258 254 253 251 250 248 250 255 260 265 263 260 258 256 255 255 261 260 263 266 269 273 270 266 263 269 269 268
287 290 285 289 291 287 278 277 283 289 281 273 269 267 263 256 253 248 246 246 244 247 253 258 263 266 264 261 260 259 259 262 261 265 270 274 274 270 262 261 261 256 252
279 281 279 281 286 287 281 278 283 285 276 271 272 270 264 259 254 249 242 241 241 246 252 258 265 268 266 264 261 258 257 260 263 267 267 268 267 262 263 259 250 248 251
277 271 269 274 283 289 287 288 284 279 275 275 273 272 266 263 256 252 250 250 251 250 251 255 258 259 264 267 272 268 260 259 260 266 262 261 265 260 258 257 256 255 254
273 269 269 273 282 287 287 291 288 276 273 275 275 270 267 266 263 262 269 257 260 270 266 269 268 268 273 283 278 274 271 268 264 261 257 254 253 255 255 255 259 258 253
Height
1497 1496 1496 1496 1496 1496 1496 1497 1498 1499 1501 1502 1503 1505 1506 1507 1508 1509 1510 1511 1511 1512 1512 1513 1513 1513 1513 1514 1514 1514 1514 1515 1515 1516 1516 1516 1517 1517 1517 1518 1518 1518 1518
1494 1493 1493 1493 1493 1493 1494 1494 1495 1496 1498 1499 1501 1502 1504 1504 1506 1507 1507 1508 1508 1509 1510 1510 1510 1510 1511 1511 1511 1511 1511 1511 1512 1513 1514 1514 1515 1513 1513 1514 1514 1515 1515
1492 1491 1491 1491 1491 1491 1491 1491 1492 1494 1496 1497 1498 1500 1501 1502 1503 1503 1504 1504 1505 1506 1507 1507 1507 1507 1507 1508 1508 1508 1508 1509 1509 1510 1511 1512 1511 1511 1510 1510 1511 1511 1511
1490 1489 1489 1489 1489 1489 1489 1489 1490 1491 1493 1494 1495 1496 1497 1498 1499 1500 1501 1501 1502 1503 1504 1504 1504 1504 1504 1504 1504 1505 1505 1505 1506 1507 1507 1508 1508 1509 1508 1508 1508 1508 1508
1488 1487 1487 1487 1487 1487 1487 1487 1488 1489 1490 1491 1492 1493 1494 1495 1496 1497 1498 1498 1499 1500 1500 1500 1501 1501 1501 1501 1501 1501 1502 1502 1502 1503 1503 1504 1505 1505 1505 1505 1504 1504 1504
1486 1486 1485 1485 1484 1485 1485 1485 1486 1486 1487 1488 1489 1490 1491 1492 1493 1493 1494 1495 1495 1496 1496 1497 1497 1497 1497 1497 1497 1498 1499 1499 1499 1500 1500 1501 1501 1502 1502 1502 1501 1500 1500
1484 1484 1483 1482 1482 1482 1482 1482 1483 1484 1485 1485 1486 1487 1488 1489 1489 1490 1491 1491 1491 1491 1492 1492 1493 1493 1493 1494 1494 1494 1495 1495 1495 1496 1496 1497 1498 1498 1498 1498 1498 1497 1497
1482 1481 1481 1480 1481 1481 1480 1480 1481 1482 1483 1483 1483 1484 1484 1485 1486 1486 1487 1487 1487 1487 1488 1488 1489 1489 1489 1490 1490 1490 1491 1491 1492 1492 1492 1493 1493 1494 1494 1495 1495 1494 1493
1480 1480 1479 1479 1479 1479 1479 1479 1479 1480 1480 1481 1481 1481 1481 1482 1482 1482 1482 1482 1483 1483 1484 1484 1485 1485 1485 1485 1486 1486 1487 1487 1488 1488 1488 1488 1489 1489 1490 1491 1491 1492 1489
1479 1478 1478 1478 1477 1477 1477 1477 1477 1477 1478 1478 1479 1478 1478 1479 1479 1478 1478 1478 1479 1479 1480 1480 1480 1480 1481 1481 1481 1482 1483 1483 1484 1484 1484 1484 1485 1485 1485 1486 1486 1486 1486
1477 1477 1476 1476 1475 1475 1475 1475 1475 1475 1475 1475 1475 1476 1476 1476 1476 1475 1475 1475 1475 1475 1475 1476 1476 1476 1476 1477 1477 1478 1478 1479 1479 1479 1479 1480 1480 1480 1480 1481 1481 1481 1481
1476 1475 1474 1474 1473 1473 1473 1473 1473 1473 1472 1472 1472 1472 1472 1472 1472 1472 1472 1472 1471 1471 1471 1471 1472 1472 1472 1472 1473 1473 1474 1474 1474 1475 1475 1475 1475 1475 1475 1475 1476 1476 1476
1474 1473 1473 1472 1472 1471 1471 1470 1470 1470 1469 1469 1469 1468 1468 1468 1468 1468 1468 1468 1468 1468 1468 1467 1467 1467 1467 1468 1468 1468 1469 1469 1470 1470 1470 1470 1470 1470 1470 1470 1470 1470 1470
1473 1472 1471 1470 1470 1469 1468 1467 1467 1466 1466 1465 1465 1464 1464 1464 1464 1465 1465 1464 1464 1464 1463 1463 1463 1463 1463 1463 1463 1464 1464 1465 1464 1465 1465 1465 1465 1465 1465 1465 1465 1465 1464
1471 1470 1469 1468 1467 1466 1465 1464 1463 1463 1462 1462 1461 1461 1460 1460 1460 1460 1460 1460 1460 1460 1460 1459 1459 1459 1459 1459 1459 1459 1459 1459 1459 1459 1459 1460 1460 1460 1460 1460 1459 1459 1459
1469 1467 1467 1466 1464 1463 1462 1461 1460 1459 1458 1458 1457 1457 1457 1456 1456 1456 1456 1456 1456 1456 1456 1455 1455 1455 1454 1454 1454 1455 1455 1454 1454 1454 1454 1454 1454 1454 1454 1454 1454 1454 1453
1466 1464 1464 1463 1461 1460 1458 1457 1456 1455 1454 1454 1453 1453 1452 1452 1452 1452 1452 1451 1451 1451 1451 1451 1450 1450 1450 1450 1450 1450 1450 1449 1449 1449 1449 1448 1448 1448 1448 1447 1447 1447 1447
1462 1461 1460 1459 1457 1456 1454 1453 1452 1451 1450 1449 1449 1448 1448 1448 1448 1447 1447 1447 1447 1447 1446 1446 1445 1445 1445 1445 1445 1445 1445 1444 1444 1443 1443 1443 1442 1442 1442 1441 1441 1440 1440
1459 1457 1456 1455 1453 1452 1450 1449 1448 1447 1446 1445 1444 1444 1443 1443 1443 1443 1443 1443 1443 1442 1442 1441 1441 1440 1440 1440 1440 1441 1440 1439 1438 1438 1437 1437 1437 1436 1436 1436 1435 1434 1433
1456 1454 1452 1451 1449 1448 1446 1445 1444 1443 1442 1441 1440 1440 1439 1438 1438 1438 1438 1438 1438 1438 1437 1436 1436 1435 1435 1435 1435 1435 1435 1434 1433 1433 1432 1431 1431 1430 1430 1430 1429 1428 1427
1452 1451 1449 1447 1445 1444 1443 1441 1440 1439 1438 1437 1436 1435 1435 1434 1434 1433 1433 1433 1433 1433 1432 1432 1431 1430 1430 1430 1430 1430 1430 1429 1428 1427 1426 1426 1425 1425 1424 1424 1423 1422 1422
1449 1447 1445 1443 1442 1441 1440 1438 1437 1436 1434 1433 1432 1431 1431 1430 1429 1429 1428 1428 1428 1427 1427 1426 1426 1425 1425 1425 1424 1424 1425 1424 1423 1422 1421 1420 1420 1419 1419 1418 1417 1417 1417
1445 1444 1442 1440 1439 1438 1436 1435 1433 1432 1431 1429 1428 1427 1427 1426 1425 1425 1424 1423 1423 1423 1422 1421 1421 1420 1420 1419 1419 1419 1419 1418 1418 1417 1416 1415 1414 1414 1413 1412 1412 1411 1411
1442 1441 1439 1437 1436 1435 1433 1432 1430 1428 1427 1426 1424 1423 1422 1422 1421 1421 1420 1419 1419 1418 1418 1417 1416 1415 1415 1414 1414 1413 1413 1413 1412 1412 1411 1410 1409 1408 1408 1407 1406 1406 1405
1439 1437 1436 1434 1433 1431 1430 1428 1426 1424 1423 1422 1421 1420 1419 1418 1417 1417 1416 1415 1415 1414 1414 1413 1412 1411 1410 1410 1410 1409 1408 1408 1407 1407 1405 1404 1403 1403 1402 1401 1401 1400 1400
1435 1434 1432 1431 1430 1428 1426 1425 1423 1421 1420 1418 1417 1416 1416 1415 1414 1413 1412 1411 1411 1410 1410 1409 1409 1407 1407 1406 1405 1405 1404 1403 1403 1402 1400 1399 1399 1398 1397 1396 1396 1395 1395